| time (UTC) | temp C | wind direction | speed KPH | gust KPH | rain 1hr cm | rain 24hr cm | rain mn cm | humidity % | barometer mb |
| 20260503043643 | 15 | 16 | 4.8 | 6.4 | 0.00 | 0.13 | 0.13 | 66 | 1021.7 |
| 20260503041638 | 15 | 350 | 3.2 | 4.8 | 0.00 | 0.13 | 0.13 | 63 | 1021.7 |
| 20260503040649 | 15 | 317 | 1.6 | 3.2 | 0.00 | 0.13 | 0.13 | 62 | 1021.5 |
| 20260503032633 | 16 | 122 | 1.6 | 4.8 | 0.00 | 0.13 | 0.13 | 55 | 1021.4 |
| 20260503030642 | 16 | 95 | 3.2 | 4.8 | 0.00 | 0.13 | 0.13 | 54 | 1020.5 |
| 20260503025642 | 16 | 78 | 0.0 | 4.8 | 0.00 | 0.15 | 0.13 | 54 | 1020.4 |
| 20260503024634 | 16 | 93 | 1.6 | 4.8 | 0.00 | 0.15 | 0.13 | 54 | 1020.2 |
| 20260503023633 | 17 | 79 | 1.6 | 8.0 | 0.00 | 0.15 | 0.13 | 52 | 1020.2 |
| 20260503022631 | 17 | 39 | 4.8 | 6.4 | 0.00 | 0.15 | 0.13 | 51 | 1020.0 |
| 20260503021645 | 17 | 69 | 3.2 | 8.0 | 0.00 | 0.15 | 0.13 | 50 | 1020.1 |
| 20260503015644 | 18 | 88 | 4.8 | 9.7 | 0.00 | 0.30 | 0.13 | 47 | 1020.4 |
| 20260503013647 | 18 | 75 | 1.6 | 11.3 | 0.00 | 0.30 | 0.13 | 44 | 1020.2 |
| 20260503012644 | 18 | 57 | 6.4 | 14.5 | 0.00 | 0.30 | 0.13 | 42 | 1020.0 |
| 20260503011635 | 19 | 76 | 6.4 | 12.9 | 0.00 | 0.30 | 0.13 | 41 | 1019.9 |
| 20260503010628 | 20 | 11 | 4.8 | 9.7 | 0.00 | 0.30 | 0.13 | 40 | 1019.8 |
| 20260503005647 | 20 | 88 | 0.0 | 4.8 | 0.00 | 0.30 | 0.13 | 39 | 1019.8 |
| 20260503003638 | 20 | 42 | 4.8 | 12.9 | 0.00 | 0.30 | 0.13 | 38 | 1019.9 |
| 20260503001643 | 21 | 11 | 1.6 | 9.7 | 0.00 | 0.30 | 0.13 | 39 | 1019.8 |
| 20260503000638 | 21 | 344 | 4.8 | 8.0 | 0.00 | 0.30 | 0.13 | 39 | 1019.7 |
| 20260502235631 | 21 | 319 | 1.6 | 4.8 | 0.00 | 0.30 | 0.13 | 39 | 1019.8 |
| 20260502163733 | 13 | 183 | 1.6 | 4.8 | 0.00 | 0.30 | 0.13 | 76 | 1023.8 |
| 20260502162724 | 12 | 246 | 1.6 | 9.7 | 0.00 | 0.30 | 0.13 | 78 | 1023.8 |
| 20260502160734 | 11 | 271 | 1.6 | 6.4 | 0.00 | 0.30 | 0.13 | 82 | 1024.0 |
| 20260502151722 | 11 | 226 | 6.4 | 14.5 | 0.00 | 0.30 | 0.13 | 86 | 1023.4 |
| 20260502130729 | 9 | 220 | 0.0 | 3.2 | 0.00 | 0.43 | 0.13 | 89 | 1022.1 |
| 20260502123714 | 9 | 284 | 1.6 | 9.7 | 0.00 | 0.48 | 0.13 | 90 | 1021.6 |
| 20260502122710 | 9 | 285 | 3.2 | 12.9 | 0.00 | 0.48 | 0.13 | 90 | 1022.4 |
| 20260502121721 | 10 | 332 | 3.2 | 8.0 | 0.00 | 0.48 | 0.13 | 91 | 1022.2 |
| 20260502120720 | 10 | 284 | 3.2 | 4.8 | 0.00 | 0.48 | 0.13 | 91 | 1022.1 |
| 20260502115711 | 10 | 273 | 3.2 | 4.8 | 0.00 | 0.48 | 0.13 | 91 | 1021.9 |
| 20260502114726 | 10 | 62 | 0.0 | 1.6 | 0.03 | 0.48 | 0.13 | 90 | 1021.7 |
| 20260502113725 | 10 | 62 | 1.6 | 3.2 | 0.05 | 0.48 | 0.13 | 90 | 1021.8 |
| 20260502112717 | 10 | 73 | 0.0 | 3.2 | 0.05 | 0.48 | 0.13 | 90 | 1021.9 |
| 20260502111727 | 10 | 70 | 0.0 | 3.2 | 0.08 | 0.48 | 0.13 | 90 | 1021.9 |
| 20260502110726 | 10 | 96 | 1.6 | 3.2 | 0.08 | 0.48 | 0.13 | 89 | 1021.8 |
| 20260502105724 | 10 | 138 | 0.0 | 4.8 | 0.10 | 0.76 | 0.13 | 89 | 1022.0 |
| 20260502104714 | 10 | 204 | 0.0 | 3.2 | 0.08 | 0.74 | 0.10 | 88 | 1022.0 |
| 20260502103725 | 10 | 241 | 1.6 | 8.0 | 0.08 | 0.71 | 0.08 | 87 | 1022.1 |
| 20260502102716 | 10 | 238 | 3.2 | 6.4 | 0.08 | 0.71 | 0.08 | 87 | 1022.1 |
| 20260502101710 | 10 | 243 | 4.8 | 9.7 | 0.05 | 0.69 | 0.05 | 85 | 1022.1 |
| 20260502100725 | 11 | 267 | 4.8 | 12.9 | 0.05 | 0.69 | 0.05 | 86 | 1022.0 |
| 20260502070716 | 11 | 256 | 0.0 | 6.4 | 0.00 | 0.97 | 0.00 | 81 | 1020.9 |
| 20260502064715 | 11 | 323 | 1.6 | 4.8 | 0.00 | 0.97 | 0.00 | 82 | 1020.6 |
| 20260502063711 | 11 | 360 | 3.2 | 4.8 | 0.00 | 0.97 | 0.00 | 83 | 1020.3 |
| 20260502061724 | 11 | 173 | 0.0 | 6.4 | 0.00 | 0.97 | 0.00 | 84 | 1020.0 |
| 20260502060722 | 11 | 178 | 1.6 | 6.4 | 0.00 | 0.97 | 0.00 | 84 | 1019.8 |
| 20260502054707 | 12 | 211 | 3.2 | 11.3 | 0.00 | 0.97 | 0.97 | 84 | 1019.7 |
| 20260502053719 | 12 | 154 | 6.4 | 11.3 | 0.00 | 0.97 | 0.97 | 84 | 1019.7 |
| 20260502052718 | 12 | 200 | 9.7 | 17.7 | 0.00 | 0.97 | 0.97 | 84 | 1019.6 |
| 20260502051708 | 12 | 198 | 6.4 | 11.3 | 0.00 | 0.97 | 0.97 | 81 | 1019.3 |
| 20260502050706 | 12 | 103 | 6.4 | 11.3 | 0.00 | 0.97 | 0.97 | 74 | 1019.3 |
| 20260502045704 | 12 | 26 | 8.0 | 14.5 | 0.00 | 0.97 | 0.97 | 72 | 1019.2 |
| 20260502044722 | 12 | 105 | 6.4 | 11.3 | 0.00 | 0.97 | 0.97 | 73 | 1018.9 |